Regional Weather Roundup
Issued by NWS

Home | Current Version | Previous Version | Graphics & Text | Print | Product List | Glossary On
Versions: 1 2 3 4 5 6 7 8 9 10 11 12 13 14 15 16 17 18 19 20 21 22 23 24 25 26 27 28 29 30 31 32 33 34 35 36 37 38 39 40 41 42 43 44 45 46 47 48 49 50
000
ASUS43 KDMX 181007
RWRIA

WEATHER ROUNDUP FOR IOWA
NATIONAL WEATHER SERVICE DES MOINES IA
500 AM CDT SAT APR 18 2015

NOTE: "FAIR" INDICATES FEW OR NO CLOUDS BELOW 12,000 FEET WITH NO
SIGNIFICANT WEATHER AND/OR OBSTRUCTIONS TO VISIBILITY.

* - THESE STATIONS ARE NOT NWS STATIONS...THUS NOT UNDER NWS
QUALITY CONTROL.  THEY ALSO DO NOT REPORT WEATHER SUCH
AS PRECIPITATION OR FOG.

IAZ001>003-012>014-020>022-031>034-043>046-181100-
   NORTHWEST IOWA

CITY           SKY/WX    TMP DP  RH WIND       PRES   REMARKS
CARROLL *      CLOUDY    55  46  71 CALM      29.99S
CHEROKEE *     CLOUDY    57  41  54 NE7       29.99S
DENISON *      CLOUDY    57  50  77 N6        29.96S
LE MARS *      CLOUDY    57  36  44 NE10      29.98F
ORANGE CITY *  PTCLDY    54  34  47 E8        29.99F
SHELDON *      MOCLDY    55  32  41 NE10      29.99F
SIOUX CITY     CLOUDY    59  45  59 S7        29.98R
SPENCER        MOCLDY    53  38  56 NE10      30.02F
STORM LAKE *   MOCLDY    57  43  58 NE13      30.00F
$$

IAZ055>058-069>071-079>083-090>094-181100-
   SOUTHWEST IOWA

CITY           SKY/WX    TMP DP  RH WIND       PRES   REMARKS
ATLANTIC *     CLOUDY    61  57  88 NE7       29.96S
AUDUBON *      CLOUDY    59  55  88 CALM      29.98F
CLARINDA *     CLOUDY    61  57  88 CALM      29.95F
COUNCIL BLFS * CLOUDY    61  57  88 E5        29.94F
CRESTON *      MOCLDY    59  55  88 NE8       29.96F
HARLAN  *      CLOUDY    61  61 100 CALM      29.99F
LAMONI         CLOUDY    62  54  74 SE5       29.95F
RED OAK *      CLOUDY    61  55  82 NE5       29.94F
SHENANDOAH *   MOCLDY    61  57  88 CALM      29.94F
$$

IAZ047>049-059>061-072>074-084-181100-
   CENTRAL IOWA

CITY           SKY/WX    TMP DP  RH WIND       PRES   REMARKS
AMES           CLOUDY    58  50  75 NE3       29.98F
ANKENY *       LGT RAIN  63  57  82 S15       30.00R
CHARITON *     CLOUDY    61  54  77 E6        29.97F
DES MOINES     LGT RAIN  62  57  83 VRB3      29.99S
GRINNELL*      CLOUDY    59  50  72 E3        30.00F
KNOXVILLE *    CLOUDY    57  52  82 CALM      29.97S
MARSHALLTOWN   MOCLDY    58  47  66 NE7       29.99S
PELLA *        CLOUDY    59  54  82 E3        29.98F
PERRY *        CLOUDY    61  55  82 S14       29.99F
$$

IAZ004>006-015-016-023>025-035-036-181100-
   NORTH CENTRAL IOWA

CITY           SKY/WX    TMP DP  RH WIND       PRES   REMARKS
ALGONA *       PTCLDY    55  43  62 NE8       30.02F
CLARION *      MOCLDY    55  46  71 E13       30.01F
ESTHERVILLE    MOCLDY    46  35  65 NE9       30.03S
FORT DODGE *   MOCLDY    54  43  66 E8        30.01F
MASON CITY     PTCLDY    50  43  77 NE3       30.04F
FOREST CITY *  MOCLDY    54  37  54 CALM      30.03F
IOWA FALLS *     N/A     55  45  67 NE6       30.02F
$$

IAZ007>011-017>019-026>030-037>042-050>054-066-181100-
   NORTHEAST IOWA

CITY           SKY/WX    TMP DP  RH WIND       PRES   REMARKS
CEDAR RAPIDS   PTCLDY    51  47  86 CALM      30.00R
CHARLES CITY * MOCLDY    55  41  58 NE7       30.04S
CLINTON *      PTCLDY    50  43  76 NE5       30.03S
DECORAH *      CLOUDY    52  45  76 CALM      30.03S
DUBUQUE        PTCLDY    53  48  83 NE8       30.03R
MONTICELLO *   CLEAR     50  50 100 CALM      30.01S
OELWEIN *      CLEAR     52  46  82 NE9       30.03S
WATERLOO       PTCLDY    52  44  74 NE3       30.02S
$$

IAZ064-065-067-068-078-181100-
   EAST CENTRAL IOWA

CITY           SKY/WX    TMP DP  RH WIND       PRES   REMARKS
DAVENPORT      CLEAR     52  44  74 SW3       30.01S
IOWA CITY      PTCLDY    51  49  92 CALM      30.02R
MT. PLEASANT * CLOUDY    59  50  72 CALM      29.99F
MUSCATINE *    CLOUDY    54  50  87 NE3       30.01S
QUAD CITIES    PTCLDY    49  44  83 CALM      30.00S
$$

IAZ062-063-075>077-085>089-095>099-181100-
   SOUTHEAST IOWA

CITY           SKY/WX    TMP DP  RH WIND       PRES   REMARKS
BURLINGTON     CLOUDY    59  53  80 CALM      29.99F
FAIRFIELD *    CLEAR     57  50  77 SE5       29.98F
FORT MADISON * CLEAR     63  54  72 S3        30.00S
KEOKUK *       CLEAR     57  54  88 CALM      29.99S
OSKALOOSA *      N/A     57  50  77 E6        29.99S
CENTERVILLE *  CLEAR     59  54  82 SE6       29.99S
OTTUMWA        CLOUDY    56  50  80 SE3       29.97F
WASHINGTON *   MOCLDY    57  55  94 N9        29.99F
$$

ABBREVIATIONS USED IN REMARKS
   TC - TEMPERATURES IN CELSIUS
  WCI - WIND CHILL INDEX
   HX - HEAT INDEX
  VSB - VISIBILITY
$$



USA.gov is the U.S. government's official web portal to all federal, state and local government web resources and services.